Regional Weather Roundup
Issued by NWS

Home | Current Version | Previous Version | Graphics & Text | Print | Product List | Glossary Off
Versions: 1 2 3 4 5 6 7 8 9 10 11 12 13 14 15 16 17 18 19 20 21 22 23 24 25 26 27 28 29 30 31 32 33 34 35 36 37 38 39 40 41 42 43 44 45 46 47 48 49 50

000
ASUS43 KLOT 291800
RWRIL

ILLINOIS REGIONAL WEATHER ROUNDUP
NATIONAL WEATHER SERVICE CHICAGO/ROMEOVILLE IL
100 PM CDT SUN MAR 29 2015

NOTE: "FAIR" INDICATES FEW OR NO CLOUDS BELOW 12,000 FEET WITH NO
SIGNIFICANT WEATHER AND/OR OBSTRUCTIONS TO VISIBILITY.

* THESE STATIONS ARE NOT UNDER NWS QUALITY CONTROL. THEY ALSO MAY NOT
  REPORT WEATHER SUCH AS PRECIPITATION OR FOG.

ILZ001-002-007-009-015-016-024-291900-
NORTHWEST ILLINOIS

CITY           SKY/WX    TMP DP  RH WIND       PRES   REMARKS
MOLINE         PTSUNNY   43  34  70 SW21G30   29.87F
6HR MIN TEMP:  32; 6HR MAX TEMP:  44; 6HR PCP:  0.06;

$$

ILZ003-004-008-010-011-017-018-291900-
NORTH CENTRAL ILLINOIS

CITY           SKY/WX    TMP DP  RH WIND       PRES   REMARKS
ROCKFORD       NOT AVBL
$$

ILZ005-006-012>014-019>023-291900-
NORTHEAST ILLINOIS

CITY           SKY/WX    TMP DP  RH WIND       PRES   REMARKS
CHICAGO-OHARE  DRIZZLE   34  29  82 S23G36    29.91F WCI  22
6HR MIN TEMP:  31; 6HR MAX TEMP:  38; 6HR PCP:  0.01;

CHICAGO-MIDWAY NOT AVBL
AURORA         CLOUDY    35  27  72 S16G29    29.91F WCI  25
6HR MIN TEMP:  29; 6HR MAX TEMP:  36; 6HR PCP:  0.07;

WAUKEGAN       NOT AVBL
DUPAGE AIRPORT CLOUDY    34  28  79 S26G35    29.88F WCI  21
6HR MIN TEMP:  30; 6HR MAX TEMP:  37; 6HR PCP:  0.02;

WHEELING       MIX PCPN  34  29  82 S29G38    29.91F WCI  20
6HR MIN TEMP:  31; 6HR MAX TEMP:  39; 6HR PCP:  0.02;

NORTHERLY ISL    N/A     37  25  62 S21         N/A  WCI  26
$$

LMZ740>746-291900-
SOUTHERN LAKE MICHIGAN

STATION/POSITION SKY/WX   TEMP    WIND        PRES    VSBY  WAVE
                          AIR SEA DIR/SP/G                  HT/PER
                          (F)     (DEG/KT/KT) (MB)    (MI)  (FT/S)
HARRISON CRIB              36     190/ 35/ 41   N/A
BURNHAM HARBOR             36     180/ 19/ 27   N/A
CALUMET HARBOR             37     160/ 15/ 27 1012.7F
BURNS HARBOR               38     190/ 19     1015.6F
MICHIGAN CITY              38     150/ 21/ 29   N/A
$$

ILZ025>027-034>036-040-047-049-050-058-095>099-291900-
WEST-CENTRAL ILLINOIS

CITY           SKY/WX    TMP DP  RH WIND       PRES   REMARKS
$$

ILZ028>032-037-038-041>044-048-051>054-059>061-291900-
CENTRAL ILLINOIS

CITY           SKY/WX    TMP DP  RH WIND       PRES   REMARKS
PEORIA         NOT AVBL
SPRINGFIELD    CLOUDY    46  28  49 SW16      29.99R
6HR MIN TEMP:  32; 6HR MAX TEMP:  46; 6HR PCP:  0.01;

TAYLORVILLE    NOT AVBL
$$

ILZ033-039-045-046-055>057-062-063-291900-
EAST-CENTRAL ILLINOIS

CITY           SKY/WX    TMP DP  RH WIND       PRES   REMARKS
$$

ILZ079-100>102-291900-
SOUTHWEST ILLINOIS

CITY           SKY/WX    TMP DP  RH WIND       PRES   REMARKS
$$

ILZ064>066-069>071-074>076-080>082-084>086-088>090-092>094-291900-
SOUTH-CENTRAL ILLINOIS

CITY           SKY/WX    TMP DP  RH WIND       PRES   REMARKS
CARBONDALE     MOSUNNY   55  29  36 S18       30.11F
6HR MIN TEMP:  32; 6HR MAX TEMP:  56;

MARION         MOSUNNY   54  28  37 S16G25    30.11F
$$

ILZ067-068-072-073-078-083-087-091-291900-
SOUTHEAST ILLINOIS

CITY           SKY/WX    TMP DP  RH WIND       PRES   REMARKS
$$

ABBREVIATIONS USED IN REMARKS
   TC - TEMPERATURE IN CELSIUS
  WCI - WIND CHILL INDEX
   HX - HEAT INDEX
  VSB - VISIBILITY
$$




USA.gov is the U.S. government's official web portal to all federal, state and local government web resources and services.